Rotterdam, Netherlands

10:20 AM CET on February 22, 2017 (GMT +0100)
Rotterdam

Weather History for EHRD - April, 2013

Change the Weather History Date:

Sunday, April 28, 2013

  Actual Average Record
Temperature  
Mean Temperature 41 °F -  
Max Temperature 53 °F 62 °F 77 °F (2007)
Min Temperature 29 °F 46 °F 29 °F (2013)
Degree Days  
Heating Degree Days 24    
Moisture  
Dew Point 35 °F    
Average Humidity 75    
Maximum Humidity 100    
Minimum Humidity 41    
Precipitation  
Precipitation 0.00 in - - ()
Sea Level Pressure  
Sea Level Pressure 30.02 in    
Wind  
Wind Speed 4 mph ()    
Max Wind Speed 10 mph    
Max Gust Speed -    
Visibility 6.7 miles    
Events Fog    
Averages and records for this station are not official NWS values.
T = Trace of Precipitation, MM = Missing Value Source: Averaged Metar Reports

Daily Weather History Graph

Daily Weather History Graph

Search for Another Location

Airport or City:

Trip Planner

Search our weather history database for the weather conditions in past years. The results will help you decide how hot, cold, wet, or windy it might be!

Date:

Astronomy

Apr. 28, 2013 Rise Set
Actual Time 6:18 AM CEST 9:02 PM CEST
Civil Twilight 5:40 AM CEST 9:40 PM CEST
Nautical Twilight 4:51 AM CEST 10:29 PM CEST
Astronomical Twilight 3:51 AM CEST 11:30 PM CEST
Moon No Moon Rise 8:05 AM CEST (4/28)
Length of Visible Light 16h 00m
Length of Day
14h 43m
Waning Gibbous, 91% of the Moon is Illuminated
Apr 28
Waning Gibbous
May 2
Last Quarter
May 10
New
May 18
First Quarter
May 25
Full

Hourly Weather History & Observations

Time (CEST) Temp. Windchill Dew Point Humidity Pressure Visibility Wind Dir Wind Speed Gust Speed Precip Events Conditions
12:25 AM 37.4 °F 32.8 °F 33.8 °F 87% 30.04 in 6.2 mi North 5.8 mph - N/A   Unknown
12:55 AM 37.4 °F 34.9 °F 33.8 °F 87% 30.04 in 6.2 mi North 3.5 mph - N/A   Unknown
1:25 AM 37.4 °F 33.8 °F 33.8 °F 87% 30.04 in 6.2 mi North 4.6 mph - N/A   Unknown
1:55 AM 35.6 °F 32.8 °F 33.8 °F 93% 30.04 in 6.2 mi North 3.5 mph - N/A   Unknown
2:00 AM 36 °F - 34 °F 90% 30.04 in 19 mi North 2.2 mph - -   Partly Cloudy
2:25 AM 35.6 °F - 33.8 °F 93% 30.04 in 6.2 mi Variable 2.3 mph - N/A   Scattered Clouds
2:55 AM 35.6 °F - 35.6 °F 100% 30.04 in 6.2 mi Variable 2.3 mph - N/A   Partly Cloudy
3:25 AM 33.8 °F - 33.8 °F 100% 30.04 in 6.2 mi WNW 2.3 mph - N/A   Unknown
3:55 AM 33.8 °F - 32.0 °F 93% 30.04 in 4.3 mi Variable 1.2 mph - N/A   Unknown
4:25 AM 33.8 °F - 33.8 °F 100% 30.04 in 4.3 mi Variable 1.2 mph - N/A   Unknown
4:55 AM 33.8 °F - 33.8 °F 100% 30.04 in 6.2 mi Variable 1.2 mph - N/A   Unknown
5:00 AM 35 °F - 35 °F 98% 30.05 in 4 mi Calm Calm - -   Mist
5:25 AM 30.2 °F - 30.2 °F 100% 30.04 in 3.1 mi Variable 1.2 mph - N/A   Mist
5:55 AM 32.0 °F - 30.2 °F 93% 30.04 in 0.3 mi NW 2.3 mph - N/A Fog Light Freezing Fog
6:25 AM 32.0 °F - 32.0 °F 100% 30.04 in 6.2 mi Variable 1.2 mph - N/A   Unknown
6:55 AM 33.8 °F - 33.8 °F 100% 30.04 in 3.7 mi Calm Calm - N/A   Unknown
7:25 AM 35.6 °F - 35.6 °F 100% 30.04 in 6.2 mi Variable 1.2 mph - N/A   Overcast
7:55 AM 35.6 °F - 35.6 °F 100% 30.04 in 3.7 mi Variable 1.2 mph - N/A   Overcast
8:00 AM 36 °F - 36 °F 100% 30.06 in 3 mi Calm Calm - -   Mist
8:25 AM 37.4 °F - 37.4 °F 100% 30.04 in 5.6 mi Calm Calm - N/A   Overcast
8:55 AM 41.0 °F - 37.4 °F 87% 30.06 in 6.2 mi Variable 2.3 mph - N/A   Partly Cloudy
9:25 AM 44.6 °F - 37.4 °F 76% 30.06 in 6.2 mi Variable 2.3 mph - N/A   Mostly Cloudy
9:55 AM 46.4 °F - 35.6 °F 66% 30.06 in 6.2 mi Variable 2.3 mph - N/A   Partly Cloudy
10:25 AM 46.4 °F - 33.8 °F 62% 30.06 in 6.2 mi Variable 2.3 mph - N/A   Overcast
10:55 AM 48.2 °F - 35.6 °F 62% 30.06 in 6.2 mi Variable 2.3 mph - N/A   Unknown
11:00 AM 48 °F - 34 °F 47% 30.07 in 22 mi 4.5 mph - -  
11:25 AM 48.2 °F - 35.6 °F 62% 30.06 in 6.2 mi Variable 2.3 mph - N/A   Partly Cloudy
11:55 AM 46.4 °F 45.2 °F 33.8 °F 62% 30.06 in 6.2 mi SSW 3.5 mph - N/A   Mostly Cloudy
12:25 PM 50.0 °F - 35.6 °F 58% 30.06 in 6.2 mi Variable 6.9 mph - N/A   Partly Cloudy
12:55 PM 48.2 °F - 35.6 °F 62% 30.04 in 6.2 mi Variable 4.6 mph - N/A   Mostly Cloudy
1:25 PM 48.2 °F - 35.6 °F 62% 30.04 in 6.2 mi WSW 5.8 mph - N/A   Overcast
1:55 PM 50.0 °F - 35.6 °F 58% 30.04 in 6.2 mi WSW 6.9 mph - N/A   Overcast
2:00 PM 50 °F - 36 °F 49% 30.04 in 19 mi SW 4.5 mph - -   Partly Cloudy
2:25 PM 50.0 °F - 37.4 °F 62% 30.01 in 6.2 mi WSW 5.8 mph - N/A   Partly Cloudy
2:55 PM 50.0 °F - 39.2 °F 66% 30.01 in 6.2 mi West 6.9 mph - N/A   Overcast
3:25 PM 51.8 °F - 39.2 °F 62% 30.01 in 6.2 mi West 6.9 mph - N/A   Scattered Clouds
3:55 PM 50.0 °F - 37.4 °F 62% 30.01 in 6.2 mi WNW 5.8 mph - N/A   Mostly Cloudy
4:25 PM 53.6 °F - 37.4 °F 54% 29.98 in 6.2 mi South 6.9 mph - N/A   Scattered Clouds
4:55 PM 53.6 °F - 39.2 °F 58% 29.98 in 6.2 mi West 6.9 mph - N/A   Mostly Cloudy
5:00 PM 53 °F - 36 °F 41% 29.99 in 19 mi SW 8.9 mph - -   Mostly Cloudy
5:25 PM 51.8 °F - 35.6 °F 54% 29.98 in 6.2 mi SW 9.2 mph - N/A   Scattered Clouds
5:55 PM 53.6 °F - 37.4 °F 54% 29.98 in 6.2 mi SW 10.4 mph - N/A   Partly Cloudy
6:25 PM 51.8 °F - 39.2 °F 62% 29.98 in 6.2 mi West 10.4 mph - N/A   Unknown
6:55 PM 50.0 °F - 39.2 °F 66% 29.98 in 6.2 mi West 9.2 mph - N/A   Unknown
7:25 PM 50.0 °F - 37.4 °F 62% 29.98 in 6.2 mi West 10.4 mph - N/A   Unknown
7:55 PM 48.2 °F - 37.4 °F 66% 29.98 in 6.2 mi West 10.4 mph - N/A   Unknown
8:00 PM 47 °F - 37 °F 58% 29.98 in 19 mi West 8.9 mph - -   Partly Cloudy
8:25 PM 46.4 °F 42.9 °F 37.4 °F 71% 29.98 in 6.2 mi West 6.9 mph - N/A   Unknown
8:55 PM 44.6 °F 42.2 °F 35.6 °F 71% 29.95 in 6.2 mi West 4.6 mph - N/A   Unknown
9:25 PM 44.6 °F 42.2 °F 35.6 °F 71% 29.95 in 6.2 mi West 4.6 mph - N/A   Unknown
9:55 PM 41.0 °F 38.0 °F 33.8 °F 76% 29.95 in 6.2 mi WSW 4.6 mph - N/A   Unknown
10:25 PM 39.2 °F 34.2 °F 32.0 °F 75% 29.95 in 6.2 mi SW 6.9 mph - N/A   Unknown
10:55 PM 41.0 °F 36.4 °F 32.0 °F 70% 29.95 in 6.2 mi SSW 6.9 mph - N/A   Unknown
11:00 PM 42 °F - 31 °F 55% 29.95 in 28 mi SW 8.9 mph - -  
11:25 PM 42.8 °F 38.6 °F 32.0 °F 66% 29.95 in 6.2 mi SSW 6.9 mph - N/A   Unknown
11:55 PM 44.6 °F 39.7 °F 32.0 °F 61% 29.95 in 6.2 mi SSW 9.2 mph - N/A   Unknown